TimeAKST,TemperatureF,Dew PointF,Humidity,Sea Level PressureIn,VisibilityMPH,Wind Direction,Wind SpeedMPH,Gust SpeedMPH,PrecipitationIn,Events,Conditions,WindDirDegrees,DateUTC
12:16 AM,-0.4,-7.6,72,29.34,10.0,Calm,Calm,-,N/A,,Clear,0,2012-12-30 09:16:00
12:36 AM,-0.4,-0.4,100,29.33,10.0,Calm,Calm,-,N/A,,Clear,0,2012-12-30 09:36:00
12:56 AM,-2.2,-2.2,100,29.32,10.0,Calm,Calm,-,N/A,,Clear,0,2012-12-30 09:56:00
1:16 AM,1.4,1.4,100,29.31,10.0,Calm,Calm,-,N/A,,Scattered Clouds,0,2012-12-30 10:16:00
1:36 AM,1.4,-4.0,78,29.30,10.0,Calm,Calm,-,N/A,,Partly Cloudy,0,2012-12-30 10:36:00
1:56 AM,3.2,1.4,92,29.29,10.0,Calm,Calm,-,N/A,,Partly Cloudy,0,2012-12-30 10:56:00
2:16 AM,3.2,-0.4,85,29.29,10.0,Calm,Calm,-,N/A,,Partly Cloudy,0,2012-12-30 11:16:00
2:36 AM,3.2,3.2,100,29.26,10.0,Calm,Calm,-,N/A,,Mostly Cloudy,0,2012-12-30 11:36:00
3:16 AM,3.2,1.4,92,29.20,10.0,Calm,Calm,-,N/A,,Overcast,0,2012-12-30 12:16:00
3:36 AM,3.2,-0.4,85,29.19,10.0,WSW,3.5,-,N/A,,Mostly Cloudy,250,2012-12-30 12:36:00
3:56 AM,1.4,-0.4,92,29.17,10.0,Calm,Calm,-,N/A,,Partly Cloudy,0,2012-12-30 12:56:00
4:16 AM,6.8,3.2,85,29.15,10.0,Calm,Calm,-,N/A,,Clear,0,2012-12-30 13:16:00
4:36 AM,5.0,-0.4,78,29.14,10.0,Calm,Calm,-,N/A,,Clear,0,2012-12-30 13:36:00
4:56 AM,3.2,1.4,92,29.13,10.0,WSW,4.6,-,N/A,,Clear,250,2012-12-30 13:56:00
5:16 AM,6.8,5.0,92,29.12,10.0,Calm,Calm,-,N/A,,Clear,0,2012-12-30 14:16:00
5:36 AM,6.8,5.0,92,29.10,10.0,Calm,Calm,-,N/A,,Clear,0,2012-12-30 14:36:00
5:56 AM,8.6,5.0,85,29.08,10.0,Calm,Calm,-,N/A,,Clear,0,2012-12-30 14:56:00
6:16 AM,6.8,6.8,100,29.05,10.0,Calm,Calm,-,N/A,,Clear,0,2012-12-30 15:16:00
6:36 AM,6.8,6.8,100,29.04,10.0,Calm,Calm,-,N/A,,Clear,0,2012-12-30 15:36:00
6:56 AM,6.8,1.4,79,29.03,10.0,Calm,Calm,-,N/A,,Clear,0,2012-12-30 15:56:00
7:16 AM,6.8,5.0,92,29.03,10.0,Calm,Calm,-,N/A,,Clear,0,2012-12-30 16:16:00
7:36 AM,5.0,1.4,85,29.02,10.0,Calm,Calm,-,N/A,,Clear,0,2012-12-30 16:36:00
7:56 AM,3.2,1.4,92,29.00,10.0,Calm,Calm,-,N/A,,Clear,0,2012-12-30 16:56:00
8:16 AM,5.0,1.4,85,28.99,10.0,Calm,Calm,-,N/A,,Clear,0,2012-12-30 17:16:00
8:36 AM,6.8,3.2,85,29.01,10.0,Calm,Calm,-,N/A,,Clear,0,2012-12-30 17:36:00
8:56 AM,6.8,6.8,100,29.02,10.0,West,3.5,-,N/A,,Clear,270,2012-12-30 17:56:00
9:16 AM,10.4,6.8,85,29.02,10.0,Calm,Calm,-,N/A,,Clear,0,2012-12-30 18:16:00
9:36 AM,6.8,5.0,92,29.01,10.0,Calm,Calm,-,N/A,,Clear,0,2012-12-30 18:36:00
9:56 AM,3.2,-2.2,78,29.01,10.0,Calm,Calm,-,N/A,,Clear,0,2012-12-30 18:56:00
10:16 AM,5.0,3.2,92,29.00,10.0,Calm,Calm,-,N/A,,Clear,0,2012-12-30 19:16:00
10:36 AM,10.4,-9999,N/A,28.99,10.0,WSW,3.5,-,N/A,,Clear,250,2012-12-30 19:36:00
10:56 AM,5.0,1.4,85,28.99,10.0,Calm,Calm,-,N/A,,Clear,0,2012-12-30 19:56:00
11:16 AM,6.8,1.4,79,28.98,10.0,Calm,Calm,-,N/A,,Clear,0,2012-12-30 20:16:00
11:36 AM,8.6,8.6,100,28.97,10.0,Calm,Calm,-,N/A,,Clear,0,2012-12-30 20:36:00
12:16 PM,10.4,3.2,73,28.94,10.0,West,3.5,-,N/A,,Clear,270,2012-12-30 21:16:00
12:36 PM,19.4,15.8,86,28.95,10.0,West,4.6,-,N/A,,Clear,280,2012-12-30 21:36:00
12:56 PM,21.2,17.6,86,28.95,10.0,SSW,4.6,-,N/A,,Clear,200,2012-12-30 21:56:00
1:16 PM,19.4,15.8,86,28.95,10.0,Calm,Calm,-,N/A,,Partly Cloudy,0,2012-12-30 22:16:00
1:36 PM,21.2,15.8,80,28.94,10.0,SW,4.6,-,N/A,,Scattered Clouds,220,2012-12-30 22:36:00
1:56 PM,21.2,17.6,86,28.94,10.0,Calm,Calm,-,N/A,,Scattered Clouds,0,2012-12-30 22:56:00
2:16 PM,19.4,15.8,86,28.95,10.0,WNW,3.5,-,N/A,,Scattered Clouds,300,2012-12-30 23:16:00
2:36 PM,21.2,15.8,80,28.95,10.0,Calm,Calm,-,N/A,,Partly Cloudy,0,2012-12-30 23:36:00
2:56 PM,21.2,15.8,80,28.96,10.0,Calm,Calm,-,N/A,,Clear,0,2012-12-30 23:56:00
3:16 PM,19.4,15.8,86,28.96,10.0,Calm,Calm,-,N/A,,Partly Cloudy,0,2012-12-31 00:16:00
3:36 PM,21.2,15.8,80,28.99,10.0,West,4.6,-,N/A,,Partly Cloudy,270,2012-12-31 00:36:00
3:56 PM,21.2,15.8,80,28.97,10.0,WNW,4.6,-,N/A,,Mostly Cloudy,300,2012-12-31 00:56:00
4:16 PM,21.2,15.8,80,28.98,10.0,NNW,3.5,-,N/A,,Mostly Cloudy,340,2012-12-31 01:16:00
4:36 PM,21.2,15.8,80,29.01,10.0,Calm,Calm,-,N/A,,Partly Cloudy,0,2012-12-31 01:36:00
4:56 PM,21.2,14.0,74,28.99,10.0,Calm,Calm,-,N/A,,Partly Cloudy,0,2012-12-31 01:56:00
5:16 PM,21.2,15.8,80,29.01,10.0,Calm,Calm,-,N/A,,Mostly Cloudy,0,2012-12-31 02:16:00
5:36 PM,19.4,12.2,74,29.02,10.0,Calm,Calm,-,N/A,,Scattered Clouds,0,2012-12-31 02:36:00
5:56 PM,19.4,15.8,86,29.02,10.0,Calm,Calm,-,N/A,,Clear,0,2012-12-31 02:56:00
6:16 PM,19.4,14.0,80,29.03,10.0,Calm,Calm,-,N/A,,Clear,0,2012-12-31 03:16:00
6:36 PM,19.4,14.0,80,29.03,10.0,Calm,Calm,-,N/A,,Clear,0,2012-12-31 03:36:00
6:56 PM,17.6,15.8,93,29.05,10.0,Calm,Calm,-,N/A,,Clear,0,2012-12-31 03:56:00
7:16 PM,17.6,12.2,79,29.06,10.0,Calm,Calm,-,N/A,,Clear,0,2012-12-31 04:16:00
7:36 PM,19.4,12.2,74,29.06,10.0,Calm,Calm,-,N/A,,Clear,0,2012-12-31 04:36:00
7:56 PM,19.4,14.0,80,29.06,10.0,Calm,Calm,-,N/A,,Clear,0,2012-12-31 04:56:00
8:16 PM,15.8,12.2,86,29.08,10.0,Calm,Calm,-,N/A,,Clear,0,2012-12-31 05:16:00
8:36 PM,15.8,12.2,86,29.08,10.0,Calm,Calm,-,N/A,,Clear,0,2012-12-31 05:36:00
8:56 PM,12.2,10.4,92,29.07,10.0,Calm,Calm,-,N/A,,Clear,0,2012-12-31 05:56:00
9:16 PM,15.8,12.2,86,29.09,10.0,Calm,Calm,-,N/A,,Clear,0,2012-12-31 06:16:00
9:36 PM,15.8,10.4,79,29.10,10.0,Calm,Calm,-,N/A,,Mostly Cloudy,0,2012-12-31 06:36:00
9:56 PM,15.8,10.4,79,29.12,10.0,Calm,Calm,-,N/A,,Mostly Cloudy,0,2012-12-31 06:56:00
10:16 PM,15.8,10.4,79,29.13,10.0,Calm,Calm,-,N/A,,Partly Cloudy,0,2012-12-31 07:16:00
10:36 PM,15.8,10.4,79,29.14,10.0,Calm,Calm,-,N/A,,Clear,0,2012-12-31 07:36:00
10:56 PM,15.8,12.2,86,29.15,10.0,Calm,Calm,-,N/A,,Clear,0,2012-12-31 07:56:00
11:16 PM,15.8,12.2,86,29.16,10.0,Calm,Calm,-,N/A,,Clear,0,2012-12-31 08:16:00
11:36 PM,17.6,12.2,79,29.17,10.0,Calm,Calm,-,N/A,,Clear,0,2012-12-31 08:36:00
11:56 PM,17.6,12.2,79,29.18,10.0,Calm,Calm,-,N/A,,Clear,0,2012-12-31 08:56:00